BEIDOU-2 G7

Last updated on Tue Sep 22 2026 00:03:13 GMT+0000 (Coordinated Universal Time)

1 41586U 16037A 26264.65355981 -.00000356 00000+0 00000+0 0 9996 2 41586 1.9535 69.6689 0005175 353.4712 283.2626 1.00271910 7856
UTC large
Height (km)
Speed (km/s)
/
Latitude / Longitude
Inclination (degrees)
Orbital Period (minutes)
Azimuth
Elevation
Range (km)
Doppler Factor

Next 0 passes for location: London (51.5072 / 0.1276)

No passes found over London.
BEIDOU-2 G7